Regional Weather Roundup
Issued by NWS

Home | Current Version | Previous Version | Graphics & Text | Print | Product List | Glossary On
Versions: 1 2 3 4 5 6 7 8 9 10 11 12 13 14 15 16 17 18 19 20 21 22 23 24 25 26 27 28 29 30 31 32 33 34 35 36 37 38 39 40 41 42 43 44 45 46 47 48 49 50
000
ASUS43 KMKX 210800
RWRWI

WISCONSIN REGIONAL WEATHER ROUNDUP
NATIONAL WEATHER SERVICE MILWAUKEE/SULLIVAN WI
300 AM CDT THU SEP 21 2017

NOTE: "FAIR" INDICATES FEW OR NO CLOUDS BELOW 12,000 FEET WITH NO
SIGNIFICANT WEATHER AND/OR OBSTRUCTIONS TO VISIBILITY.

WIZ001-002-006>008-014>016-023>028-210900-
NORTHWEST WISCONSIN

CITY           SKY/WX    TMP DP  RH WIND       PRES   REMARKS
SUPERIOR ARPT    N/A     42  42 100 CALM      30.01R FOG
ASHLAND        CLEAR     47  45  93 W3        30.01F
HAYWARD        FOG       42  41  96 CALM      30.01F VSB 1
SIREN          CLEAR     45  43  94 CALM      30.02R
CUMBERLAND     CLEAR     46  45  93 CALM      30.01S FOG
RICE LAKE      CLEAR     47  47  98 CALM      30.02S FOG
CHETEK         CLEAR     51  51 100 CALM      30.01S FOG
LADYSMITH      CLEAR     53  51  93 NW3       30.03R
EAU CLAIRE     CLEAR     52  51  97 SE3       29.99S
MENOMONIE      CLEAR     53  52  97 CALM      30.00S
NEW RICHMOND   CLEAR     48  48 100 CALM      30.00F
OSCEOLA        CLEAR     46  46 100 CALM      30.03S
$$

WIZ003>005-009-010-017-018-210900-
NORTH CENTRAL WISCONSIN

CITY           SKY/WX    TMP DP  RH WIND       PRES   REMARKS
MANITOWISH WTR FOG       47  47 100 CALM      30.01S VSB 1/4
ARBOR VITAE    CLEAR     57  56  95 N6        30.00F
WOODRUFF       CLEAR     57  56  95 N6        30.00F
RHINELANDER    CLEAR     56  56 100 CALM      30.01S
EAGLE RIVER    CLEAR     55  55 100 CALM      30.00F FOG
LAND O LAKES   CLEAR     54  52  95 CALM      30.02S
PHILLIPS       FOG       47  47 100 CALM      30.00F VSB 3/4
TOMAHAWK       FOG       53  52  97 CALM      30.01S VSB 1/2
MEDFORD        FOG       51  51  99 CALM      29.99F VSB 1/4
MERRILL        NOT AVBL
$$

WIZ029-030-035-036-043>047-210900-
CENTRAL WISCONSIN

CITY           SKY/WX    TMP DP  RH WIND       PRES   REMARKS
WAUSAU         CLEAR     61  61 100 NW5       29.96S FOG
MOSINEE        CLEAR     61  61 100 NW7       29.99S
MARSHFIELD     CLEAR     59  57  93 N6        29.97F
STEVENS POINT  FOG       64  64 100 NW3       29.98R VSB 1/2
WAUPACA        CLOUDY    67  67  98 NW5       29.94F FOG
WAUTOMA        FOG       68  68 100 S5        29.95S VSB 3/4
WISC RAPIDS    CLOUDY    65  65 100 N5        29.96F FOG
CAMP DOUGLAS   CLOUDY    63  63 100 CALM      29.94F FOG
$$

WIZ011>013-019>022-031-037>040-048>050-210900-
NORTHEAST WISCONSIN

CITY           SKY/WX    TMP DP  RH WIND       PRES   REMARKS
ANTIGO         FOG       64  64 100 CALM      30.00R VSB 1/4
SHAWANO        CLOUDY    66  64  93 CALM      29.95S FOG
OCONTO         CLOUDY    66  65  96 W3        29.94S
STURGEON BAY   CLOUDY    69  66  90 NW6       29.94S
GREEN BAY      CLOUDY    66  66 100 NW7       29.93F
MANITOWOC      MOCLDY    68  66  93 NW9       29.92R
APPLETON       MOCLDY    66  66 100 N7        29.93F
CLINTONVILLE   NOT AVBL
OSHKOSH        CLOUDY    68  66  93 NW6       29.92F
$$

WIZ032>034-041-042-053>061-210900-
SOUTHWEST WISCONSIN

CITY           SKY/WX    TMP DP  RH WIND       PRES   REMARKS
LA CROSSE      NOT AVBL
SPARTA         FOG       57  57 100 CALM      29.96F VSB<1/4
VIROQUA        PTCLDY    63  63 100 CALM      29.96F
BOSCOBEL       PTCLDY    69  68  96 N5        29.92F FOG
PRAIRIE DU CHI CLOUDY    69  66  92 CALM      29.93S
PLATTEVILLE    CLOUDY    70  70 100 SE8       29.95S
$$

WIZ056-057-062-063-064-067-068-210900-
SOUTH CENTRAL WISCONSIN

CITY           SKY/WX    TMP DP  RH WIND       PRES   REMARKS
REEDSBURG      CLOUDY    68  68 100 CALM      29.94F
BARABOO/DELLS  CLOUDY    69  68  96 CALM      29.95F FOG
LONE ROCK      CLOUDY    70  70 100 CALM      29.92F FOG
MINERAL POINT  CLOUDY    72  72 100 CALM      29.95F
MADISON        CLOUDY    70  69  97 CALM      29.93F FOG
MIDDLETON      CLOUDY    72  72 100 CALM      29.93F
WATERTOWN      CLOUDY    68  68 100 CALM      29.94F
MONROE         CLOUDY    72  63  73 CALM      29.95F
JANESVILLE     CLOUDY    72  72 100 CALM      29.94S
$$

WIZ051-052-058>065-066-070>072-210900-
SOUTHEAST WISCONSIN

CITY           SKY/WX    TMP DP  RH WIND       PRES   REMARKS
MILWAUKEE      CLOUDY    70  67  90 SE6       29.93F
WAUKESHA       CLOUDY    66  64  94 CALM      29.95F
MILWAUKEE/TIMM CLOUDY    68  63  83 CALM      29.94F
RACINE         CLOUDY    69  66  90 CALM      29.96F
BURLINGTON     CLOUDY    70  69  98 CALM      29.95S
KENOSHA        CLOUDY    70  65  84 CALM      29.95F
FOND DU LAC    MOCLDY    70  66  87 SW5       29.91F
SHEBOYGAN      MOCLDY    68  68 100 SW7       29.90F
WEST BEND        N/A     66  66 100 CALM      29.94F
JUNEAU         CLOUDY    67  67  97 CALM      29.95F
$$

LSZ147-162-210900-
LAKE SUPERIOR

STATION/POSITION TIME  TEMP    WIND        PRES    WAVE
                       AIR SEA DIR/SP/G            HT/PER
                 (UTC) (F)     (DEG/KT/KT) (MB)    (FT/S)
W MID LAKE BUOY  0650   58 54  360/  4/  4 1015.7R   1/ 4
DEVILS ISLAND    0700   61     300/  7/  7 1016.0R
PORT WING        0640          130/  1/  3 1015.9R
SAXON HARBOR     0730   52     200/  5/  6 1015.6S
$$

LMZ867-665-643>646-210900-
LAKE MICHIGAN

STATION/POSITION TIME  TEMP    WIND        PRES    WAVE
                       AIR SEA DIR/SP/G            HT/PER
                 (UTC) (F)     (DEG/KT/KT) (MB)    (FT/S)
S GREEN BAY BUOY 0730   69 66  320/ 12/ 14 1013.3F
N MID LAKE BUOY  0650   68 65  210/  6/  8 1014.6R   3/ 6
NORTHPORT PIER   0740   70     310/  9/ 11 1012.9F
KEWAUNEE LAKESHO 0730   67     310/  2/  3 1012.3F
SHEBOYGAN LAKESH 0700   75     190/ 14/ 14 1012.2F
PORT WASHINGTON  0730   68     250/  4/  5 1014.2F
ATWATER BUOY     0639   67 66  170/  4/  6 1014.8R
MILWAUKEE LAKESH 0740   68     180/  5/  6   N/A
S MID LAKE BUOY  0650   72 69   40/  6/  8 1015.1R   1/ 3
KENOSHA   LAKESH 0700   71      50/  5/ 11 1013.9
$$

TC  - TEMPERATURE IN CELSIUS
VSB - VISIBILITY IN STATUTE MILES
WCI - WIND CHILL INDEX
HX  - HEAT INDEX





USA.gov is the U.S. government's official web portal to all federal, state and local government web resources and services.